Wright-Patt AFB, OH

10:08 AM EDT on April 26, 2017 (GMT -0400)
Wright-Patterson Air Force Base

Weather History for KFFO - February, 2013

Change the Weather History Date:

Monday, February 18, 2013

  Actual Average Record
Temperature  
Mean Temperature 38 °F -  
Max Temperature 57 °F 40 °F 65 °F (2017)
Min Temperature 19 °F 23 °F 3 °F (2015)
Degree Days  
Heating Degree Days 27    
Moisture  
Dew Point 23 °F    
Average Humidity 51    
Maximum Humidity 77    
Minimum Humidity 29    
Precipitation  
Precipitation 0.03 in - - ()
Sea Level Pressure  
Sea Level Pressure 29.98 in    
Wind  
Wind Speed 11 mph (SSE)    
Max Wind Speed 38 mph    
Max Gust Speed 54 mph    
Visibility 10 miles    
Events Rain    
Averages and records for this station are not official NWS values.
T = Trace of Precipitation, MM = Missing Value Source: NWS Daily Summary

Daily Weather History Graph

Daily Weather History Graph

Search for Another Location

Airport or City:

Trip Planner

Search our weather history database for the weather conditions in past years. The results will help you decide how hot, cold, wet, or windy it might be!

Date:

Astronomy

Feb. 18, 2013 Rise Set
Actual Time 7:24 AM EST 6:16 PM EST
Civil Twilight 6:57 AM EST 6:43 PM EST
Nautical Twilight 6:25 AM EST 7:15 PM EST
Astronomical Twilight 5:54 AM EST 7:46 PM EST
Moon 12:01 PM EST (2/18) 2:03 AM EST (2/18)
Length of Visible Light 11h 46m
Length of Day
10h 51m
First Quarter, 58% of the Moon is Illuminated
Feb 18
First Quarter
Feb 25
Full
Mar 4
Last Quarter
Mar 11
New
Mar 19
First Quarter

Hourly Weather History & Observations

Time (EST) Temp. Windchill Dew Point Humidity Pressure Visibility Wind Dir Wind Speed Gust Speed Precip Events Conditions
12:55 AM 19.9 °F 12.1 °F 9.7 °F 64% 30.25 in 10.0 mi ESE 5.8 mph - N/A   Partly Cloudy
1:55 AM 19.6 °F - 9.5 °F 65% 30.25 in 10.0 mi Calm Calm - N/A   Clear
2:21 AM 19.4 °F 12.8 °F 10.4 °F 68% 30.25 in 10.0 mi SE 4.6 mph - N/A   Clear
2:55 AM 19.6 °F 14.5 °F 9.3 °F 64% 30.25 in 10.0 mi SE 3.5 mph - N/A   Clear
3:55 AM 20.5 °F 15.6 °F 9.0 °F 61% 30.21 in 10.0 mi ESE 3.5 mph - N/A   Partly Cloudy
4:55 AM 21.2 °F 12.6 °F 9.3 °F 60% 30.20 in 10.0 mi ESE 6.9 mph - N/A   Partly Cloudy
5:55 AM 21.7 °F 14.3 °F 9.7 °F 60% 30.19 in 10.0 mi SE 5.8 mph - N/A   Scattered Clouds
6:55 AM 22.3 °F 16.1 °F 10.4 °F 60% 30.17 in 10.0 mi ESE 4.6 mph - N/A   Scattered Clouds
7:55 AM 24.3 °F 13.3 °F 10.8 °F 56% 30.15 in 10.0 mi SE 11.5 mph - N/A   Scattered Clouds
8:55 AM 27.1 °F 17.5 °F 12.6 °F 54% 30.14 in 10.0 mi SE 10.4 mph - N/A   Clear
9:55 AM 34.0 °F 25.0 °F 14.4 °F 45% 30.10 in 10.0 mi SSE 12.7 mph - N/A   Scattered Clouds
10:55 AM 40.8 °F 33.7 °F 17.8 °F 40% 30.07 in 10.0 mi SSE 12.7 mph 21.9 mph N/A   Mostly Cloudy
11:00 AM 42.8 °F 35.1 °F 19.4 °F 39% 30.02 in 10.0 mi South 16.1 mph - N/A   Mostly Cloudy
11:55 AM 46.8 °F - 22.3 °F 38% 30.04 in 10.0 mi South 12.7 mph - N/A   Mostly Cloudy
12:55 PM 50.4 °F - 25.3 °F 38% 30.01 in 10.0 mi South 21.9 mph - N/A   Mostly Cloudy
1:55 PM 52.5 °F - 25.9 °F 36% 29.97 in 10.0 mi South 17.3 mph 24.2 mph N/A   Mostly Cloudy
2:55 PM 56.5 °F - 28.9 °F 35% 29.95 in 10.0 mi South 19.6 mph 25.3 mph N/A   Mostly Cloudy
3:51 PM 57.2 °F - 24.8 °F 29% 29.88 in 10.0 mi South 20.7 mph 34.5 mph N/A   Mostly Cloudy
3:55 PM 56.7 °F - 25.2 °F 30% 29.91 in 10.0 mi South 23.0 mph 34.5 mph N/A   Mostly Cloudy
4:55 PM 54.1 °F - 28.0 °F 37% 29.88 in 10.0 mi SSE 15.0 mph 24.2 mph N/A   Mostly Cloudy
5:55 PM 52.7 °F - 30.4 °F 42% 29.86 in 10.0 mi SSE 13.8 mph - N/A   Overcast
6:55 PM 51.8 °F - 31.5 °F 46% 29.85 in 10.0 mi SSE 13.8 mph - N/A   Overcast
7:55 PM 51.1 °F - 32.2 °F 48% 29.84 in 10.0 mi SSE 15.0 mph 21.9 mph N/A   Overcast
8:55 PM 51.1 °F - 30.9 °F 46% 29.80 in 10.0 mi SSE 16.1 mph 23.0 mph N/A   Overcast
9:45 PM 50.0 °F - 28.4 °F 43% 29.78 in 10.0 mi South 13.8 mph 23.0 mph N/A Rain Light Rain
9:55 PM 50.5 °F - 29.5 °F 44% 29.78 in 10.0 mi South 17.3 mph 23.0 mph 0.00 in   Overcast
10:40 PM 51.8 °F - 30.2 °F 44% 29.75 in 10.0 mi South 26.5 mph 39.1 mph N/A Rain Light Rain
10:51 PM 50.0 °F - 32.0 °F 50% 29.73 in 10.0 mi South 38.0 mph 50.6 mph N/A Rain Light Rain
10:55 PM 50.2 °F - 32.5 °F 51% 29.75 in 10.0 mi South 35.7 mph 54.1 mph 0.00 in Rain Light Rain
11:11 PM 46.4 °F 37.5 °F 37.4 °F 71% 29.78 in 8.0 mi South 27.6 mph 41.4 mph N/A Rain Light Rain
11:38 PM 44.6 °F 38.1 °F 37.4 °F 76% 29.73 in 10.0 mi South 13.8 mph 20.7 mph N/A Rain Light Rain
11:55 PM 45.0 °F 37.4 °F 38.3 °F 77% 29.75 in 10.0 mi South 18.4 mph 26.5 mph 0.03 in Rain Light Rain